Change the Weather History Date:

Tuesday, December 3, 2013

  Actual Average Record
Temperature  
Mean Temperature 40 °F -  
Max Temperature 47 °F 40 °F 67 °F (1956)
Min Temperature 33 °F 19 °F -2 °F (1985)
Degree Days  
Heating Degree Days 25    
Moisture  
Dew Point 31 °F    
Average Humidity 72    
Maximum Humidity 89    
Minimum Humidity 55    
Precipitation  
Precipitation 0.00 in - - ()
Sea Level Pressure  
Sea Level Pressure 29.57 in    
Wind  
Wind Speed 9 mph (North)    
Max Wind Speed 17 mph    
Max Gust Speed 23 mph    
Visibility 8 miles    
Events      
Averages and records for this station are not official NWS values.
T = Trace of Precipitation, MM = Missing Value Source: NWS Daily Summary

Daily Weather History Graph

Daily Weather History Graph

Search for Another Location

Airport or City:

Trip Planner

Search our weather history database for the weather conditions in past years. The results will help you decide how hot, cold, wet, or windy it might be!

Date:

Astronomy

Dec. 03, 2013 Rise Set
Actual Time 7:35 AM CST 5:04 PM CST
Civil Twilight 7:05 AM CST 5:35 PM CST
Nautical Twilight 6:31 AM CST 6:08 PM CST
Astronomical Twilight 5:58 AM CST 6:41 PM CST
Moon 8:06 AM CST (12/3) 6:09 PM CST (12/3)
Length of Visible Light 10h 29m
Length of Day
9h 29m
New Moon, 1% of the Moon is Illuminated
Dec 3
New Moon
Dec 9
First Quarter
Dec 17
Full
Dec 25
Last Quarter
Jan 1
New

Hourly Weather History & Observations

Time (CST) Temp. Windchill Dew Point Humidity Pressure Visibility Wind Dir Wind Speed Gust Speed Precip Events Conditions
12:15 AM 45.7 °F 39.1 °F 32.0 °F 59% 29.50 in 10.0 mi SSW 15.0 mph - N/A   Clear
12:35 AM 46.4 °F 40.7 °F 32.0 °F 57% 29.50 in 10.0 mi SSW 12.7 mph - N/A   Clear
12:55 AM 47.5 °F - 32.0 °F 55% 29.50 in 10.0 mi SW 8.1 mph - N/A   Clear
1:15 AM 46.6 °F - 32.0 °F 57% 29.50 in 10.0 mi SW 5.8 mph - N/A   Clear
1:35 AM 44.8 °F 43.3 °F 32.0 °F 61% 29.50 in 10.0 mi WNW 3.5 mph - N/A   Clear
1:55 AM 44.4 °F - 32.0 °F 62% 29.50 in 10.0 mi Calm Calm - N/A   Clear
2:15 AM 43.3 °F - 32.0 °F 64% 29.50 in 10.0 mi Calm Calm - N/A   Clear
2:35 AM 42.8 °F 41.1 °F 32.0 °F 66% 29.50 in 10.0 mi SW 3.5 mph - N/A   Clear
2:55 AM 41.9 °F 40.0 °F 31.8 °F 67% 29.50 in 10.0 mi SW 3.5 mph - N/A   Clear
3:15 AM 40.5 °F - 31.6 °F 71% 29.50 in 10.0 mi Calm Calm - N/A   Clear
3:35 AM 40.1 °F - 31.6 °F 72% 29.49 in 10.0 mi Calm Calm - N/A   Clear
3:55 AM 39.7 °F 37.6 °F 31.8 °F 73% 29.49 in 10.0 mi SSW 3.5 mph - N/A   Clear
4:15 AM 41.4 °F 38.4 °F 32.0 °F 69% 29.49 in 10.0 mi SW 4.6 mph - N/A   Clear
4:35 AM 40.3 °F 35.5 °F 31.8 °F 72% 29.50 in 10.0 mi WSW 6.9 mph - N/A   Clear
4:55 AM 41.4 °F 35.7 °F 31.6 °F 68% 29.50 in 10.0 mi WSW 9.2 mph - N/A   Clear
5:15 AM 41.4 °F 38.4 °F 31.5 °F 68% 29.50 in 10.0 mi West 4.6 mph - N/A   Clear
5:35 AM 41.0 °F 37.1 °F 31.1 °F 68% 29.50 in 10.0 mi West 5.8 mph - N/A   Clear
5:55 AM 40.1 °F 38.0 °F 31.1 °F 70% 29.50 in 10.0 mi West 3.5 mph - N/A   Clear
6:15 AM 39.2 °F - 30.6 °F 71% 29.50 in 10.0 mi Calm Calm - N/A   Clear
6:35 AM 38.5 °F 32.7 °F 30.2 °F 72% 29.50 in 10.0 mi West 8.1 mph - N/A   Clear
6:55 AM 37.9 °F 32.1 °F 30.2 °F 74% 29.51 in 10.0 mi West 8.1 mph - N/A   Clear
7:15 AM 36.9 °F 29.1 °F 30.0 °F 76% 29.53 in 10.0 mi NW 11.5 mph - N/A   Clear
7:35 AM 36.3 °F 30.8 °F 29.7 °F 77% 29.54 in 10.0 mi NW 6.9 mph - N/A   Clear
7:55 AM 35.6 °F 30.7 °F 29.3 °F 78% 29.54 in 10.0 mi NW 5.8 mph - N/A   Clear
8:15 AM 34.7 °F 29.6 °F 29.3 °F 81% 29.54 in 10.0 mi NW 5.8 mph - N/A   Clear
8:35 AM 35.1 °F 29.3 °F 29.3 °F 80% 29.54 in 10.0 mi NNW 6.9 mph - N/A   Clear
8:55 AM 36.7 °F 31.2 °F 30.4 °F 78% 29.55 in 10.0 mi NNW 6.9 mph - N/A   Clear
9:15 AM 38.8 °F 33.8 °F 31.1 °F 74% 29.56 in 10.0 mi North 6.9 mph - N/A   Clear
9:35 AM 40.1 °F 36.1 °F 31.1 °F 70% 29.57 in 10.0 mi North 5.8 mph - N/A   Clear
9:55 AM 41.7 °F 35.6 °F 32.0 °F 68% 29.58 in 10.0 mi North 10.4 mph - N/A   Clear
10:15 AM 42.3 °F 36.3 °F 31.8 °F 67% 29.58 in 10.0 mi North 10.4 mph - N/A   Clear
10:35 AM 43.2 °F 38.4 °F 32.0 °F 65% 29.58 in 10.0 mi North 8.1 mph - N/A   Clear
11:15 AM 43.5 °F 38.3 °F 32.0 °F 64% 29.58 in 10.0 mi North 9.2 mph - N/A   Clear
11:35 AM 45.7 °F 40.6 °F 32.0 °F 59% 29.58 in 10.0 mi North 10.4 mph - N/A   Clear
11:55 AM 45.7 °F 41.5 °F 32.0 °F 59% 29.56 in 10.0 mi North 8.1 mph - N/A   Clear
12:15 PM 45.5 °F 41.3 °F 31.8 °F 59% 29.54 in 10.0 mi North 8.1 mph - N/A   Clear
12:35 PM 45.9 °F 41.2 °F 31.8 °F 58% 29.55 in 10.0 mi North 9.2 mph - N/A   Clear
12:55 PM 45.9 °F 40.8 °F 31.6 °F 58% 29.55 in 10.0 mi North 10.4 mph - N/A   Clear
1:15 PM 45.9 °F 41.2 °F 31.6 °F 58% 29.56 in 10.0 mi North 9.2 mph - N/A   Clear
1:35 PM 45.9 °F 40.0 °F 31.6 °F 58% 29.56 in 10.0 mi NNE 12.7 mph - N/A   Clear
1:55 PM 46.0 °F 41.0 °F 31.6 °F 57% 29.56 in 10.0 mi NNE 10.4 mph - N/A   Clear
2:15 PM 45.7 °F 40.2 °F 31.8 °F 58% 29.57 in 10.0 mi North 11.5 mph - N/A   Clear
2:35 PM 45.7 °F 40.2 °F 32.0 °F 59% 29.58 in 10.0 mi North 11.5 mph 16.1 mph N/A   Clear
2:55 PM 44.2 °F 37.3 °F 31.8 °F 62% 29.58 in 7.0 mi North 15.0 mph - N/A   Clear
3:15 PM 42.6 °F 35.9 °F 31.6 °F 65% 29.59 in 7.0 mi North 12.7 mph - N/A   Clear
3:35 PM 41.4 °F 34.3 °F 31.6 °F 68% 29.59 in 7.0 mi NNE 12.7 mph 18.4 mph N/A   Clear
3:55 PM 40.8 °F 32.9 °F 31.8 °F 70% 29.59 in 7.0 mi NNE 15.0 mph 19.6 mph N/A   Clear
4:15 PM 39.7 °F 32.3 °F 31.6 °F 73% 29.59 in 7.0 mi NNE 12.7 mph - N/A   Clear
4:35 PM 39.2 °F 31.6 °F 31.6 °F 74% 29.59 in 7.0 mi NE 12.7 mph - N/A   Clear
4:55 PM 38.7 °F 31.4 °F 31.8 °F 76% 29.59 in 7.0 mi NNE 11.5 mph - N/A   Clear
5:15 PM 38.5 °F 32.1 °F 31.8 °F 77% 29.60 in 7.0 mi NNE 9.2 mph - N/A   Scattered Clouds
5:35 PM 38.8 °F 32.1 °F 32.0 °F 76% 29.61 in 7.0 mi NNE 10.4 mph - N/A   Overcast
5:55 PM 38.3 °F 31.9 °F 31.8 °F 77% 29.61 in 7.0 mi NNE 9.2 mph - N/A   Scattered Clouds
6:15 PM 38.1 °F 31.2 °F 31.6 °F 77% 29.62 in 7.0 mi North 10.4 mph - N/A   Clear
6:35 PM 37.6 °F 30.0 °F 31.5 °F 79% 29.63 in 7.0 mi North 11.5 mph - N/A   Clear
6:55 PM 36.7 °F 28.0 °F 30.9 °F 80% 29.63 in 7.0 mi North 13.8 mph 20.7 mph N/A   Clear
7:15 PM 36.3 °F 27.1 °F 30.7 °F 80% 29.63 in 7.0 mi North 15.0 mph - N/A   Clear
7:35 PM 36.5 °F 27.0 °F 31.1 °F 81% 29.63 in 7.0 mi NNE 16.1 mph 20.7 mph N/A   Mostly Cloudy
7:55 PM 36.9 °F 27.5 °F 31.1 °F 80% 29.63 in 7.0 mi NNE 16.1 mph 21.9 mph N/A   Overcast
8:15 PM 36.5 °F 27.4 °F 31.1 °F 81% 29.63 in 7.0 mi NNE 15.0 mph 23.0 mph N/A   Overcast
8:35 PM 36.5 °F 26.7 °F 31.1 °F 81% 29.63 in 5.0 mi NNE 17.3 mph 21.9 mph N/A   Haze
8:55 PM 36.1 °F 26.9 °F 31.3 °F 83% 29.65 in 5.0 mi NNE 15.0 mph - N/A   Haze
9:15 PM 36.0 °F 26.7 °F 31.6 °F 84% 29.66 in 5.0 mi NNE 15.0 mph - N/A   Haze
9:35 PM 35.6 °F 27.5 °F 31.6 °F 85% 29.67 in 5.0 mi NNE 11.5 mph - N/A   Haze
9:55 PM 35.2 °F 27.1 °F 31.6 °F 87% 29.68 in 5.0 mi NNE 11.5 mph 18.4 mph N/A   Overcast
10:15 PM 35.1 °F 24.8 °F 31.8 °F 88% 29.67 in 5.0 mi NNE 17.3 mph 20.7 mph N/A   Overcast
10:35 PM 34.9 °F 27.1 °F 31.8 °F 89% 29.67 in 5.0 mi North 10.4 mph 17.3 mph N/A   Overcast
10:55 PM 34.7 °F 25.5 °F 31.6 °F 89% 29.66 in 5.0 mi North 13.8 mph 18.4 mph N/A   Overcast
11:15 PM 34.2 °F 25.2 °F 31.1 °F 89% 29.66 in 4.0 mi NNE 12.7 mph 20.7 mph N/A   Overcast
11:35 PM 33.8 °F 25.8 °F 30.9 °F 89% 29.67 in 5.0 mi North 10.4 mph 16.1 mph N/A   Overcast
11:55 PM 33.8 °F 25.8 °F 30.7 °F 89% 29.67 in 5.0 mi North 10.4 mph 16.1 mph N/A   Overcast